Tracking 31027 objects as of 19-Jul-2025
HD Live streaming from Space Station
objects crossing your sky now

COSMOS 970 DEB

Track COSMOS 970 DEB now!
10-day predictions


NORAD ID: 10570
Int'l Code: 1977-121M
Perigee: 943.4 km
Apogee: 967.7 km
Inclination: 65.4 °
Period: 104.0 minutes
Semi major axis: 7326 km
RCS: 0.049 m2 (small)
Launch date: December 21, 1977
Source: Commonwealth of Independent States (former USSR) (CIS)
Launch site: TYURATAM MISSILE AND SPACE COMPLEX (TTMTR)

Note: This is SATELLITE DEBRIS
Your satellite tracking list
MOLNIYA 1-86
Track 1 satellite(s)




NASA's NSSDC Master Catalog

Two Line Element Set (TLE):
1 10570U 77121M   25199.47509641  .00001627  00000-0  15273-2 0  9999
2 10570  65.3583 209.7232 0016570 242.8785 269.1343 13.84376717361549
Source of the keplerian elements: AFSPC